TimeEST,TemperatureF,Dew PointF,Humidity,Sea Level PressureIn,VisibilityMPH,Wind Direction,Wind SpeedMPH,Gust SpeedMPH,PrecipitationIn,Events,Conditions,WindDirDegrees,DateUTC
12:53 AM,37.9,35.1,89,30.30,10.0,Calm,Calm,-,N/A,,Clear,0,2010-11-13 05:53:00
1:53 AM,37.0,34.0,89,30.29,8.0,Calm,Calm,-,N/A,,Clear,0,2010-11-13 06:53:00
2:53 AM,36.0,33.1,89,30.28,10.0,Calm,Calm,-,N/A,,Clear,0,2010-11-13 07:53:00
3:53 AM,35.1,32.0,89,30.27,10.0,Calm,Calm,-,N/A,,Clear,0,2010-11-13 08:53:00
4:53 AM,35.1,30.9,85,30.27,10.0,Calm,Calm,-,N/A,,Clear,0,2010-11-13 09:53:00
5:53 AM,34.0,30.9,89,30.27,8.0,Calm,Calm,-,N/A,,Clear,0,2010-11-13 10:53:00
6:53 AM,33.1,30.0,89,30.28,9.0,Calm,Calm,-,N/A,,Clear,0,2010-11-13 11:53:00
7:53 AM,37.9,32.0,79,30.29,10.0,Calm,Calm,-,N/A,,Clear,0,2010-11-13 12:53:00
8:53 AM,45.0,36.0,71,30.30,10.0,Calm,Calm,-,N/A,,Clear,0,2010-11-13 13:53:00
9:53 AM,55.0,30.0,38,30.29,10.0,Calm,Calm,-,N/A,,Clear,0,2010-11-13 14:53:00
10:53 AM,60.1,23.0,24,30.27,10.0,ENE,4.6,-,N/A,,Clear,70,2010-11-13 15:53:00
11:53 AM,62.1,23.0,22,30.24,10.0,Calm,Calm,-,N/A,,Clear,0,2010-11-13 16:53:00
12:53 PM,66.0,21.9,19,30.20,10.0,Variable,3.5,-,N/A,,Clear,0,2010-11-13 17:53:00
1:53 PM,66.9,21.0,17,30.17,10.0,Variable,3.5,-,N/A,,Clear,0,2010-11-13 18:53:00
2:53 PM,68.0,19.0,15,30.14,10.0,Calm,Calm,-,N/A,,Clear,0,2010-11-13 19:53:00
3:53 PM,68.0,21.0,17,30.14,10.0,Calm,Calm,-,N/A,,Clear,0,2010-11-13 20:53:00
4:53 PM,64.9,28.0,25,30.14,10.0,Calm,Calm,-,N/A,,Clear,0,2010-11-13 21:53:00
5:53 PM,53.1,36.0,52,30.14,10.0,Calm,Calm,-,N/A,,Clear,0,2010-11-13 22:53:00
6:53 PM,48.9,37.9,66,30.14,10.0,Calm,Calm,-,N/A,,Clear,0,2010-11-13 23:53:00
7:53 PM,46.0,37.0,71,30.15,10.0,Calm,Calm,-,N/A,,Clear,0,2010-11-14 00:53:00
8:53 PM,43.0,37.0,80,30.14,9.0,Calm,Calm,-,N/A,,Clear,0,2010-11-14 01:53:00
9:53 PM,41.0,36.0,82,30.14,9.0,Calm,Calm,-,N/A,,Clear,0,2010-11-14 02:53:00
10:53 PM,39.9,35.1,83,30.14,8.0,Calm,Calm,-,N/A,,Clear,0,2010-11-14 03:53:00
11:53 PM,39.0,35.1,86,30.14,6.0,Calm,Calm,-,N/A,,Clear,0,2010-11-14 04:53:00